Location: Chariton
(41.0140°N, 93.3060°W)
Time: 14:55:05
(UTC-06:00)

Hubble Space Telescope - Visible Passes

Search period start: 20 November 2017 00:00
Search period end: 30 November 2017 00:00
Orbit: 537 x 541 km, 28.5° (Epoch: 20 November)

Date Brightness Start Highest point End Pass type
(mag) Time Alt. Az. Time Alt. Az. Time Alt. Az.
20 Nov 3.3 04:45:22 12° S 04:45:22 12° S 04:47:04 10° SE visible
20 Nov 3.3 06:23:37 10° SW 06:25:45 14° S 06:27:52 10° SSE visible
21 Nov 3.4 04:35:52 13° SSE 04:35:52 13° SSE 04:36:58 10° SE visible
21 Nov 3.2 06:13:27 10° SW 06:15:24 13° S 06:17:22 10° SSE visible
22 Nov 3.6 04:26:19 11° SSE 04:26:19 11° SSE 04:26:47 10° SE visible
22 Nov 3.2 06:03:23 10° SSW 06:05:03 12° S 06:06:43 10° SSE visible
23 Nov 3.3 05:53:32 10° SSW 05:54:42 11° SSW 05:55:51 10° S visible
